#timestamp,LO_Frequency,Hit,StdDev 
1558904415.0,286047002.0,N
1558904415.9,286047002.0,N
1558904435.8,286047001.5,N
1558904455.6,286047002.9,N
1558904475.4,286047005.0,Y
1558904495.3,286047004.0,P
1558904515.1,286047000.3,N
1558904535.9,286047000.7,N
1558904555.7,286046999.7,N
1558904575.5,286047000.1,N
1558904595.4,286046999.9,N
1558904615.2,286046999.9,N
1558904635.0,286047000.4,N
1558904635.9,286047000.4,N
1558904655.8,286047001.2,N
1558904675.6,286047000.5,N
1558904695.5,286047000.7,N
1558904715.3,286047001.2,N
1558904735.1,286047000.9,N
1558904755.9,286046999.8,N
1558904775.7,286047000.7,N
1558904795.6,286047000.9,N
1558904815.4,286047001.2,N
1558904835.2,286046996.7,Y
1558904855.1,286046997.3,P
1558904856.0,286046997.3,N
1558904875.8,286046997.7,N
1558904895.6,286046997.3,N
1558904915.5,286046997.2,N
1558904935.3,286046996.9,N
1558904955.2,286046997.8,N
1558904975.9,286046996.5,Y
1558904995.7,286046998.9,P
1558905015.6,286047000.6,N
1558905035.4,286046998.6,N
1558905055.3,286046998.4,N
1558905075.1,286046998.8,N
1558905076.0,286046998.8,N
1558905095.8,286046998.7,N
1558905115.7,286046998.9,N
1558905135.5,286046998.4,N
1558905155.4,286046996.5,Y
1558905175.2,286046997.4,P
1558905195.0,286046998.4,N
1558905195.9,286046998.4,N
1558905215.8,286046998.9,N
1558905235.6,286046999.2,N
1558905255.4,286046999.4,N
1558905275.3,286046999.1,N
1558905295.1,286046998.9,N
1558905315.8,286046998.5,N
1558905335.7,286046999.3,N
1558905355.5,286047001.1,N
1558905375.4,286046998.4,N
1558905395.2,286046998.2,N
1558905415.0,286046999.0,N
1558905415.9,286046999.0,N
1558905435.8,286046999.3,N
1558905455.6,286046999.3,N
1558905475.4,286046998.6,N
1558905495.3,286046996.9,Y
1558905515.1,286046999.5,P
1558905535.9,286046998.3,P
1558905555.7,286046999.4,N
1558905575.5,286047000.1,N
1558905595.4,286047000.4,N
1558905615.2,286047000.7,N
1558905635.0,286047001.2,N
1558905636.0,286047001.2,N
1558905655.8,286047000.9,N
1558905675.6,286046999.4,N
1558905695.5,286046996.5,Y
1558905715.3,286046999.1,P
1558905735.1,286047000.6,N
1558905755.9,286047001.0,N
1558905775.7,286047000.6,N
1558905795.6,286047001.6,N
1558905815.4,286047000.6,N
1558905835.2,286046998.9,N
1558905855.1,286046998.4,N
1558905856.0,286046998.4,N
1558905875.8,286046996.8,N
1558905895.6,286046999.3,N
1558905915.5,286046999.4,N
1558905935.3,286047000.7,N
1558905955.2,286047001.1,N
1558905975.9,286046999.4,N
1558905995.7,286046998.5,N
1558906015.6,286047002.8,N
1558906035.4,286047000.4,N
1558906055.2,286046998.4,N
1558906075.1,286046998.8,N
1558906076.0,286046998.8,N
1558906095.8,286047001.1,N
1558906115.7,286047000.9,N
1558906135.5,286047000.3,N
1558906155.3,286047000.1,N
1558906175.2,286047000.1,N
1558906195.9,286047000.8,N
1558906215.7,286046998.7,N
1558906235.6,286046996.5,N
1558906255.4,286046996.9,N
1558906275.3,286046998.3,N
1558906295.1,286047001.6,N
1558906296.0,286047001.6,N
1558906315.8,286047002.6,N
1558906335.7,286047000.1,N
1558906355.5,286047002.7,N
1558906375.3,286046999.9,N
1558906395.2,286046998.7,N
1558906415.0,286046998.6,N
1558906415.9,286046998.6,N
1558906435.8,286046997.0,N
1558906455.6,286046998.8,N
1558906505.4,286046996.7,E
1558906515.4,286046999.4,N
1558906535.2,286047004.0,P
1558906555.0,286047005.5,N
1558906555.9,286047005.5,N
1558906575.8,286047003.4,N
1558906595.6,286047004.5,N
1558906615.4,286047006.0,N
1558906635.3,286047003.4,N
1558906655.1,286047003.7,N
1558906675.9,286047003.7,N
1558906695.7,286047004.1,N
1558906715.5,286046999.9,N
1558906735.4,286047001.5,N
1558906755.2,286047004.3,N
1558906775.1,286047004.2,N
1558906776.0,286047004.2,N
1558906795.8,286047001.5,N
1558906815.6,286047003.8,N
1558906835.5,286047003.7,N
1558906855.3,286047006.0,Y
1558906875.1,286047002.3,P
1558906895.9,286047002.3,P
1558906915.7,286047002.4,P
1558906935.6,286046999.7,N
1558906955.4,286047001.8,N
1558906975.2,286047001.6,N
1558906995.1,286047002.1,N
1558906996.0,286047002.1,N
1558907015.8,286047002.3,N
1558907035.7,286047002.2,N
1558907055.5,286047000.2,N
1558907075.3,286046999.4,N
1558907095.2,286046999.0,N
1558907115.0,286047002.4,N
1558907115.9,286047002.4,N
1558907135.7,286047003.7,N
1558907155.6,286047001.3,N
1558907175.4,286047002.3,N
1558907195.3,286047001.2,N
1558907215.1,286047000.3,N
1558907235.8,286047000.3,N
1558907255.7,286047002.3,N
1558907275.5,286047001.0,N
1558907295.4,286047001.0,N
1558907315.2,286047000.3,N
1558907335.0,286047000.0,N
1558907335.9,286047000.0,N
1558907355.8,286046998.2,N
1558907375.6,286047001.1,N
1558907395.4,286047000.2,N
1558907415.3,286047002.6,N
1558907435.1,286047000.3,N
1558907455.9,286046998.2,N
1558907475.7,286046998.3,N
1558907495.5,286046998.1,N
1558907515.4,286046999.5,N
1558907535.2,286046996.8,N
1558907555.1,286046997.8,N
1558907556.0,286046997.8,N
1558907575.8,286046995.3,N
1558907595.6,286046995.4,N
1558907615.5,286046996.9,N
1558907635.3,286046998.6,N
1558907655.1,286047000.2,N
1558907675.9,286047000.2,N
1558907695.7,286046999.9,N
1558907715.6,286047000.1,N
1558907735.4,286047002.2,N
1558907755.2,286047000.6,N
1558907775.1,286047000.1,N
1558907776.0,286047000.1,N
1558907795.8,286047001.8,N
1558907815.6,286047002.8,N
1558907835.5,286047002.4,N
1558907855.3,286047000.3,N
1558907875.2,286047002.3,N
1558907895.9,286047000.1,N
1558907915.7,286047002.6,N
1558907935.6,286047002.3,N
1558907955.4,286047002.5,N
1558907975.2,286047000.2,N
1558907995.1,286047001.9,N
1558907996.0,286047001.9,N
